Location: Leiter
(44.7178°N, 106.2687°W)
Time: 09:06:03
(UTC+00:00)

CUBESAT XI-V - Pass Details

Date: 05 July 2022
Orbit: 668 x 690 km, 98.1° (Epoch: 14 August)

Event Time Altitude Azimuth Distance (km) Brightness Sun altitude
Exits shadow 10:16:50 10° 250° (WSW) 2,080 ? -10.2°
Maximum altitude 10:18:28 12° 271° (W) 1,965 ? -10.0°
Drops below altitude 10° 10:20:15 10° 295° (WNW) 2,105 ? -9.7°
Sets 10:23:58 0° 326° (NW) 3,022 ? -9.3°
